Wind_Speed
2 1 2 2 2 3 2 3 3 4 5 5 4 4 4 4 4 4 3 3 3 4 4 5 5 5 5 5 6 6 7 7 6 7 7 7 6 5 5 6 6 7 7 7 7 7 8 8 8
2 3 2 2 2 2 2 4 4 5 5 5 5 5 4 4 5 4 4 4 4 4 4 5 5 5 6 6 6 6 6 7 7 7 8 8 7 7 6 6 5 6 7 8 7 8 8 9 9
2 3 2 3 3 3 3 4 4 4 5 5 5 5 5 5 5 5 5 6 5 5 5 5 6 6 6 7 7 7 7 7 7 8 8 8 8 8 7 7 6 6 7 9 9 9 9 9 9
3 3 3 3 3 3 3 4 4 5 5 6 5 5 5 5 6 7 6 7 7 7 7 7 7 7 7 7 8 7 8 8 8 8 9 9 8 8 8 8 8 9 9 10 10 10 10 9 9
3 3 3 3 4 4 5 5 6 5 6 6 6 6 6 6 7 7 7 7 7 7 8 8 8 8 8 8 8 8 8 8 8 9 9 9 8 8 8 9 9 10 10 11 11 11 11 10 9
3 3 3 4 4 4 5 5 5 6 6 7 7 7 7 7 7 8 8 8 8 8 8 8 9 9 9 9 9 9 9 9 9 9 9 9 8 9 9 9 9 9 10 10 10 11 11 10 10
3 3 4 4 5 5 5 5 5 5 6 6 7 7 8 8 8 8 8 9 9 8 8 8 8 9 9 9 9 9 10 10 10 10 10 10 9 9 9 10 9 10 10 10 10 9 10 10 10
3 3 3 4 5 5 5 5 5 5 5 6 5 6 7 7 7 8 8 8 8 8 8 8 8 8 8 9 9 9 10 10 11 11 11 10 10 10 10 9 9 9 9 10 10 10 10 11 10
3 3 4 4 5 5 5 5 5 5 5 6 6 6 6 7 7 8 7 7 8 7 8 8 7 8 8 9 9 10 10 10 10 10 11 11 11 10 10 10 10 10 10 10 10 10 10 10 10
2 3 3 4 4 4 4 5 5 5 6 6 6 6 7 7 7 7 7 7 6 6 7 7 7 8 8 9 9 10 10 10 10 11 11 11 11 11 11 11 10 10 10 9 8 9 10 11 10
2 3 3 3 4 4 4 5 5 5 6 6 7 7 7 6 7 7 6 6 6 6 7 7 7 7 8 8 9 10 10 10 10 11 11 11 11 11 11 11 10 9 9 8 8 9 9 10 10
3 4 4 4 4 5 4 5 5 6 6 6 6 6 7 6 7 7 7 7 6 7 7 8 8 8 8 9 9 9 10 10 10 10 10 11 11 10 9 10 10 9 8 8 8 8 9 10 10
3 4 4 4 4 5 4 5 5 5 6 6 6 6 7 7 7 7 7 7 7 7 7 8 8 9 9 9 9 9 9 10 10 11 10 10 10 10 9 9 9 9 9 8 8 9 10 10 11
3 4 4 4 4 5 5 5 5 5 6 6 6 6 7 7 7 7 7 7 7 7 8 8 8 8 8 9 9 9 10 10 11 11 10 10 10 9 9 9 9 9 9 9 10 10 10 10 11
4 4 4 5 5 6 5 5 6 6 6 6 7 7 7 7 7 7 7 7 7 7 7 8 9 8 8 9 9 10 10 11 11 10 10 10 9 9 9 9 9 9 9 9 10 10 11 11 11
4 5 5 6 6 6 7 6 6 6 6 7 8 8 7 8 8 7 7 8 8 8 8 8 9 8 9 9 10 10 11 11 11 10 10 10 10 10 10 10 10 9 9 9 10 11 11 11 11
5 6 7 7 7 6 7 7 7 7 7 7 8 8 8 8 8 8 8 9 9 9 9 9 9 9 9 10 10 10 11 11 10 10 10 10 10 10 10 10 11 10 10 10 10 11 11 11 11
6 7 8 9 8 8 7 7 8 8 8 8 8 9 8 8 9 9 9 9 10 10 10 10 10 10 10 10 11 11 11 11 10 10 10 10 10 11 11 10 10 11 11 10 10 11 11 11 10
7 8 9 10 9 9 8 8 9 9 9 9 9 9 9 9 10 10 10 10 10 10 10 11 11 11 11 11 11 11 11 11 11 11 11 11 11 11 11 11 10 10 10 10 10 10 10 10 9
9 9 10 10 10 10 10 10 10 10 10 10 11 11 11 11 11 11 11 11 11 11 11 11 12 12 12 12 12 12 12 12 11 11 12 12 12 11 11 11 10 10 9 9 10 10 10 9 9
10 11 11 11 10 11 11 11 11 11 11 12 12 12 12 12 12 12 13 13 13 13 13 13 13 13 13 13 12 12 12 12 12 12 12 12 12 12 11 11 10 9 9 9 9 10 10 9 9
11 12 11 11 11 12 12 12 11 13 13 13 12 13 13 14 13 13 14 14 14 14 14 14 13 13 13 13 13 13 13 13 13 13 12 12 12 12 11 11 11 10 10 10 10 10 10 10 10
11 11 10 11 11 12 12 13 13 14 15 14 13 14 14 15 15 15 15 16 16 16 15 15 15 14 14 14 14 14 14 14 13 13 13 12 12 12 12 11 11 11 11 11 11 11 10 10 10
10 10 11 11 11 12 12 13 14 15 16 15 14 15 15 16 16 17 17 17 17 17 17 16 16 16 16 16 15 15 15 15 14 14 14 13 13 13 12 12 12 12 12 11 11 12 11 11 11
11 11 11 11 11 12 13 16 17 17 17 17 17 17 17 17 18 18 18 18 18 18 18 18 17 17 17 17 17 17 17 16 16 15 15 15 14 14 14 13 13 13 13 13 13 13 12 12 12
13 13 12 12 12 13 14 17 17 17 18 19 19 19 19 19 19 19 19 19 19 19 19 18 19 18 18 18 18 18 18 18 17 17 17 16 16 16 15 15 14 14 14 15 15 14 14 13 13
14 14 14 14 14 14 16 18 19 19 20 20 20 20 20 20 20 20 20 20 20 19 19 19 19 19 19 19 19 20 19 19 19 19 18 18 18 17 17 17 16 16 16 16 16 16 15 15 15
15 15 15 15 16 16 16 18 21 22 20 21 21 21 21 21 21 21 22 22 21 21 20 20 20 20 20 20 21 21 21 21 21 21 20 19 19 18 18 18 18 17 17 17 16 16 17 17 16
16 16 17 17 18 18 19 21 22 23 22 23 23 23 23 23 22 22 23 22 22 22 22 21 21 21 21 21 21 21 21 22 22 21 21 21 20 20 20 20 19 19 18 17 17 18 18 17 17
18 18 19 19 20 21 23 24 23 24 24 24 25 24 24 24 24 23 23 23 23 23 23 22 22 22 21 21 21 21 22 22 22 22 22 22 22 21 21 20 20 20 19 19 19 19 18 18 18
Wind_Direction
272 253 236 236 241 254 252 251 265 266 271 273 272 269 268 282 293 295 291 290 298 296 290 292 296 293 292 289 285 288 289 287 291 293 295 294 288 279 282 282 268 246 235 237 241 237 236 237 240
257 247 235 233 238 250 260 273 274 275 275 277 276 276 278 287 297 294 288 288 291 298 298 300 300 299 293 291 291 293 294 289 289 291 291 289 292 285 284 283 269 248 239 240 243 239 240 240 241
247 238 231 240 241 264 272 280 277 272 272 275 275 274 276 282 291 292 291 291 291 292 295 297 299 299 296 293 292 292 293 291 291 293 294 296 292 287 282 279 271 257 253 248 248 247 248 245 243
251 246 240 245 249 276 278 272 273 275 275 275 272 273 273 281 290 290 290 291 290 290 291 292 293 294 294 292 289 290 291 291 291 293 295 296 296 292 282 276 272 266 262 257 255 254 252 247 241
256 247 242 251 262 272 276 276 276 278 277 270 268 270 274 281 287 288 290 289 286 285 286 288 288 289 289 290 290 288 291 293 293 293 295 297 299 294 289 282 275 269 263 262 261 255 249 246 243
261 254 246 251 260 273 279 275 279 281 277 274 273 274 277 281 283 284 287 290 287 284 282 284 286 288 288 290 290 289 290 292 293 294 294 293 294 291 292 287 285 276 268 263 259 254 249 246 244
260 259 260 261 261 263 269 273 275 280 281 280 279 281 281 282 283 286 288 290 289 286 285 283 285 286 287 288 289 288 290 292 293 292 292 290 291 288 287 285 282 282 276 262 253 253 246 240 241
268 266 265 267 270 271 273 277 277 283 286 290 293 292 293 289 287 290 294 295 292 290 288 287 287 286 285 287 290 292 292 291 291 291 289 285 285 286 285 283 281 278 274 269 268 261 252 243 240
262 265 271 272 273 287 284 283 281 287 291 297 298 296 293 294 294 293 294 299 299 294 292 292 291 291 289 288 292 295 294 292 291 289 286 285 284 286 284 277 277 274 270 269 267 262 257 244 239
261 279 277 280 278 286 288 289 290 294 297 298 300 298 297 297 295 296 297 301 304 302 299 298 296 295 295 295 296 297 297 294 292 291 287 286 286 286 285 286 281 273 269 266 259 254 242 238 242
278 283 287 283 284 287 285 290 293 293 297 301 305 305 301 300 299 301 299 299 304 304 305 306 308 306 303 302 301 300 300 299 295 294 291 289 290 289 286 287 286 280 273 262 250 242 234 240 248
271 281 287 288 290 300 295 291 292 294 298 302 307 306 307 310 304 303 304 303 304 307 309 309 310 308 306 305 305 304 303 303 300 298 296 293 292 291 289 284 285 281 277 267 251 244 243 247 251
276 278 280 290 293 294 297 294 295 297 300 303 308 309 308 309 308 309 307 307 309 312 310 310 310 307 307 308 308 305 305 304 303 301 299 294 291 290 291 285 283 276 274 274 271 260 258 255 254
285 280 282 286 287 289 290 292 294 296 297 300 302 303 307 309 308 310 313 315 310 316 310 310 313 311 310 309 307 305 305 304 304 302 299 296 292 292 291 287 283 278 271 269 266 262 257 255 257
284 289 292 294 293 292 291 292 291 293 294 296 296 296 300 306 311 311 309 312 314 315 314 311 312 312 312 310 307 305 304 306 305 303 302 299 295 293 292 290 286 280 272 267 264 265 264 264 262
278 286 294 292 293 294 290 291 291 291 292 295 293 290 293 300 305 306 305 305 312 313 312 313 315 313 312 310 309 308 306 306 307 303 302 299 296 294 293 291 286 282 276 270 269 270 269 269 265
278 288 291 291 292 295 292 293 290 290 290 292 290 288 292 295 298 302 305 308 309 309 308 308 309 310 311 310 310 309 308 305 305 303 300 297 296 295 294 292 289 285 278 273 270 271 270 270 267
274 282 289 290 291 291 290 289 289 288 289 291 291 291 295 296 298 300 303 306 307 307 305 304 305 306 308 307 307 304 304 304 303 301 299 298 299 296 295 293 290 287 284 279 274 273 273 269 267
261 268 274 280 283 285 289 289 288 287 289 294 294 293 295 296 296 298 299 301 302 302 304 301 301 304 306 306 304 302 300 300 301 300 298 296 296 297 297 296 292 287 283 279 276 275 277 268 267
259 266 270 273 276 282 285 284 286 287 290 293 295 295 292 291 291 293 294 295 298 300 301 300 301 302 302 304 303 302 300 298 299 300 299 297 296 297 297 296 295 290 286 281 277 276 275 272 271
263 268 272 274 275 279 282 282 284 285 287 288 290 292 292 290 290 289 290 293 295 297 297 296 296 297 298 299 299 300 298 296 295 297 297 296 295 294 294 296 293 288 284 283 282 281 277 274 269
264 267 272 275 277 280 283 282 281 284 286 287 287 288 290 290 292 292 291 291 293 294 294 294 293 293 294 295 297 299 298 294 293 294 294 295 294 294 294 292 291 286 283 282 280 282 280 275 269
268 271 271 274 275 275 279 283 283 283 286 289 289 288 289 290 289 290 290 290 289 290 291 292 291 290 290 291 292 293 294 293 293 291 291 293 292 291 292 289 288 287 286 283 279 280 279 275 269
268 269 273 276 276 276 281 281 281 284 288 293 291 288 287 289 290 290 290 290 289 288 288 288 288 288 288 288 288 288 289 290 289 289 287 287 287 288 288 288 287 284 283 282 279 278 277 273 270
267 267 270 274 279 282 283 283 283 286 288 291 289 287 288 288 289 289 289 289 288 287 285 286 286 287 285 285 285 285 285 286 287 287 286 285 285 285 284 285 286 283 279 280 278 277 275 272 271
267 264 265 267 265 271 276 278 285 286 285 286 285 285 286 287 287 287 287 289 288 286 284 284 285 285 284 283 282 283 284 285 285 285 284 284 283 283 281 282 282 282 280 279 277 275 272 270 271
268 265 264 264 263 265 269 275 283 284 286 287 286 285 285 286 285 286 286 286 287 286 285 284 283 283 283 283 283 283 283 284 283 283 283 282 282 280 278 279 279 279 280 279 274 272 270 268 268
269 267 262 262 265 263 265 272 278 282 285 287 287 287 287 286 286 286 287 286 284 283 283 283 283 283 283 284 284 283 282 282 283 281 280 280 280 277 276 277 277 277 278 278 273 272 270 269 269
271 267 264 265 268 267 267 268 275 281 285 286 286 288 288 286 286 286 286 285 283 282 282 283 283 283 284 284 285 284 283 282 280 280 277 277 278 276 274 274 275 277 276 274 273 273 269 268 268
273 271 270 270 270 270 272 274 278 280 281 283 285 286 286 285 285 284 285 283 283 282 282 283 283 284 284 283 283 283 283 283 280 279 277 275 275 276 273 272 274 274 273 273 272 271 268 266 266
Height
5856 5856 5857 5858 5859 5858 5858 5858 5858 5858 5859 5859 5859 5859 5859 5860 5861 5863 5860 5859 5860 5859 5859 5859 5859 5859 5859 5858 5858 5858 5858 5858 5857 5857 5857 5856 5856 5855 5855 5853 5851 5851 5853 5856 5857 5858 5859 5860 5860
5856 5856 5857 5858 5858 5857 5858 5857 5858 5858 5858 5858 5858 5859 5859 5859 5859 5859 5859 5859 5859 5859 5859 5858 5858 5858 5858 5857 5857 5857 5857 5857 5856 5856 5856 5855 5855 5854 5854 5853 5852 5852 5853 5855 5857 5857 5858 5859 5859
5855 5856 5857 5857 5857 5857 5857 5857 5857 5857 5857 5857 5858 5858 5859 5859 5859 5858 5858 5858 5858 5858 5858 5858 5857 5857 5857 5857 5856 5856 5856 5856 5856 5855 5855 5854 5854 5854 5853 5853 5853 5853 5854 5855 5855 5856 5857 5857 5858
5855 5856 5857 5857 5856 5856 5856 5856 5856 5857 5857 5857 5857 5858 5857 5858 5858 5858 5858 5857 5857 5857 5857 5857 5856 5856 5856 5856 5855 5855 5855 5855 5855 5854 5854 5853 5852 5852 5852 5852 5852 5852 5853 5853 5854 5855 5855 5856 5856
5854 5856 5856 5855 5855 5855 5856 5856 5856 5856 5856 5856 5857 5857 5857 5857 5857 5857 5857 5856 5856 5856 5856 5856 5855 5855 5855 5854 5854 5854 5854 5854 5853 5853 5853 5852 5851 5851 5851 5851 5851 5851 5851 5852 5852 5853 5853 5854 5855
5855 5855 5855 5855 5855 5855 5855 5855 5855 5855 5855 5855 5856 5856 5856 5856 5856 5855 5855 5855 5855 5855 5855 5854 5854 5854 5853 5853 5853 5853 5852 5852 5852 5852 5851 5851 5850 5850 5850 5850 5849 5849 5850 5850 5850 5850 5851 5852 5853
5854 5854 5854 5854 5854 5854 5854 5854 5855 5855 5855 5855 5855 5855 5854 5854 5854 5854 5854 5854 5854 5853 5853 5853 5853 5852 5852 5852 5852 5851 5851 5851 5850 5850 5850 5850 5849 5849 5849 5848 5848 5848 5847 5847 5847 5847 5848 5849 5850
5853 5854 5853 5853 5853 5853 5853 5853 5854 5854 5853 5853 5853 5853 5853 5853 5853 5853 5853 5853 5852 5852 5852 5852 5851 5851 5851 5850 5850 5850 5849 5849 5849 5849 5848 5848 5848 5848 5847 5847 5846 5846 5845 5845 5845 5844 5845 5846 5848
5852 5854 5852 5852 5852 5852 5852 5853 5853 5853 5853 5852 5852 5852 5852 5852 5852 5852 5852 5851 5851 5851 5850 5850 5850 5850 5849 5849 5848 5848 5848 5847 5847 5847 5847 5846 5846 5846 5846 5845 5845 5844 5844 5843 5841 5840 5841 5842 5845
5852 5852 5852 5852 5852 5852 5852 5852 5852 5852 5852 5852 5852 5851 5851 5851 5851 5851 5851 5850 5850 5850 5849 5849 5849 5848 5848 5848 5847 5847 5846 5846 5845 5845 5845 5844 5844 5844 5844 5843 5843 5843 5842 5841 5838 5837 5836 5839 5843
5851 5851 5851 5851 5851 5851 5851 5851 5851 5851 5851 5851 5851 5851 5850 5850 5850 5849 5849 5849 5849 5848 5848 5848 5847 5847 5847 5846 5846 5845 5845 5844 5844 5843 5843 5843 5842 5842 5842 5842 5841 5841 5841 5840 5838 5837 5837 5839 5842
5851 5851 5851 5851 5851 5851 5851 5851 5851 5851 5851 5850 5850 5850 5850 5849 5849 5848 5848 5848 5848 5847 5847 5847 5846 5846 5845 5845 5844 5844 5843 5843 5842 5842 5841 5841 5841 5840 5840 5840 5840 5840 5840 5839 5838 5838 5838 5839 5841
5850 5850 5850 5850 5851 5850 5850 5850 5850 5850 5850 5849 5849 5849 5849 5848 5848 5848 5847 5847 5847 5847 5846 5846 5845 5844 5844 5843 5843 5842 5842 5841 5841 5840 5840 5839 5839 5838 5838 5838 5838 5838 5838 5838 5838 5838 5838 5839 5840
5849 5849 5850 5850 5850 5850 5850 5850 5850 5849 5849 5849 5849 5848 5848 5848 5847 5847 5846 5846 5845 5845 5845 5844 5844 5843 5843 5842 5842 5841 5841 5840 5839 5838 5838 5837 5837 5837 5837 5837 5836 5836 5836 5836 5837 5837 5837 5837 5838
5849 5849 5849 5849 5849 5849 5849 5849 5849 5848 5848 5848 5848 5847 5847 5847 5847 5846 5846 5845 5844 5844 5844 5843 5843 5842 5842 5841 5840 5840 5839 5839 5838 5837 5837 5836 5836 5835 5835 5835 5834 5834 5834 5834 5835 5835 5835 5835 5836
5847 5848 5848 5848 5848 5848 5849 5848 5847 5847 5847 5847 5847 5846 5846 5846 5845 5845 5845 5844 5844 5843 5843 5842 5841 5840 5840 5840 5839 5839 5838 5837 5836 5836 5835 5835 5834 5834 5833 5833 5833 5832 5832 5832 5832 5833 5833 5833 5833
5847 5847 5847 5847 5847 5847 5847 5846 5846 5846 5846 5846 5845 5845 5845 5844 5844 5844 5843 5843 5842 5842 5842 5841 5840 5839 5839 5838 5838 5837 5836 5835 5835 5834 5834 5833 5833 5832 5832 5831 5831 5830 5830 5830 5830 5830 5831 5831 5831
5846 5846 5846 5846 5845 5845 5845 5845 5845 5844 5844 5844 5844 5843 5843 5843 5843 5842 5842 5841 5841 5841 5840 5839 5839 5838 5838 5837 5836 5836 5835 5834 5833 5833 5832 5831 5830 5830 5830 5829 5829 5828 5828 5828 5828 5828 5828 5828 5829
5844 5845 5845 5844 5844 5844 5844 5843 5843 5843 5843 5843 5842 5841 5841 5841 5841 5840 5840 5840 5839 5839 5838 5837 5837 5836 5836 5835 5834 5834 5833 5832 5831 5831 5830 5829 5829 5828 5828 5827 5827 5826 5826 5825 5825 5826 5826 5826 5826
5843 5843 5843 5842 5842 5842 5842 5842 5842 5841 5841 5841 5840 5840 5839 5839 5839 5838 5838 5838 5837 5837 5836 5835 5835 5834 5834 5833 5832 5832 5831 5830 5830 5829 5828 5828 5827 5826 5826 5825 5824 5824 5823 5823 5823 5823 5824 5824 5824
5840 5841 5841 5840 5840 5840 5840 5840 5839 5839 5839 5839 5838 5838 5837 5836 5836 5836 5836 5835 5835 5834 5834 5833 5832 5832 5831 5831 5830 5829 5828 5828 5827 5827 5826 5825 5825 5824 5823 5823 5822 5822 5821 5821 5821 5821 5821 5821 5822
5838 5838 5838 5838 5838 5838 5838 5838 5837 5836 5837 5836 5836 5835 5835 5834 5834 5833 5833 5832 5832 5831 5831 5830 5830 5829 5829 5828 5827 5827 5826 5825 5825 5824 5823 5823 5822 5821 5821 5821 5820 5820 5820 5819 5819 5819 5819 5819 5819
5835 5835 5835 5835 5835 5835 5835 5835 5835 5833 5833 5833 5833 5833 5832 5831 5831 5830 5830 5829 5829 5828 5828 5827 5826 5826 5826 5825 5825 5824 5823 5822 5822 5821 5821 5820 5820 5819 5818 5818 5818 5817 5817 5817 5817 5817 5817 5817 5817
5833 5833 5833 5832 5832 5833 5833 5832 5832 5830 5830 5830 5830 5829 5829 5828 5827 5827 5826 5826 5825 5825 5824 5824 5823 5823 5822 5822 5821 5821 5820 5819 5819 5818 5818 5817 5817 5816 5816 5815 5815 5815 5815 5814 5814 5814 5814 5814 5814
5830 5831 5831 5830 5829 5830 5830 5829 5829 5828 5827 5827 5826 5825 5825 5824 5824 5823 5822 5822 5821 5820 5820 5819 5819 5819 5818 5818 5817 5817 5816 5816 5815 5815 5815 5814 5814 5813 5813 5813 5812 5812 5812 5811 5811 5811 5811 5811 5812
5827 5827 5828 5828 5828 5827 5827 5826 5826 5824 5824 5823 5822 5821 5821 5820 5819 5819 5818 5817 5817 5816 5815 5815 5815 5814 5814 5813 5813 5813 5812 5812 5811 5811 5811 5811 5810 5810 5809 5809 5809 5809 5808 5808 5808 5808 5808 5808 5808
5823 5823 5824 5824 5824 5824 5824 5823 5822 5820 5819 5819 5818 5817 5816 5816 5815 5814 5814 5813 5812 5811 5811 5810 5810 5810 5809 5809 5808 5808 5808 5807 5807 5807 5806 5806 5806 5806 5805 5805 5805 5805 5804 5804 5804 5804 5804 5805 5805
5820 5820 5820 5820 5820 5820 5820 5819 5817 5815 5814 5814 5813 5812 5812 5811 5810 5809 5808 5808 5807 5807 5806 5805 5805 5804 5804 5804 5803 5803 5802 5802 5802 5801 5802 5801 5801 5801 5801 5800 5800 5800 5800 5800 5799 5800 5800 5800 5801
5816 5816 5815 5815 5815 5815 5814 5815 5812 5811 5810 5809 5808 5807 5806 5805 5804 5804 5803 5802 5802 5801 5801 5800 5800 5799 5799 5798 5797 5797 5797 5796 5796 5796 5796 5796 5795 5795 5796 5795 5795 5795 5795 5795 5795 5795 5795 5796 5796
5811 5811 5811 5811 5810 5810 5809 5811 5808 5806 5805 5804 5803 5802 5801 5800 5799 5798 5797 5796 5796 5796 5795 5794 5794 5793 5793 5792 5792 5791 5791 5790 5790 5790 5790 5790 5790 5790 5790 5790 5790 5790 5790 5790 5790 5790 5790 5791 5791